Theta_e
327 327 326 325 325 324 323 324 323 324 325 325 324 322 320 321 326 326 327 328 329 329 330 331 328 330 333 330 329 329 330 333 333
323 322 323 323 322 321 321 321 321 321 322 322 321 319 316 320 324 325 327 326 327 329 327 328 328 327 330 329 330 328 328 330 329
319 318 318 318 319 318 318 317 318 319 320 320 319 316 313 313 318 321 324 326 326 326 327 326 327 327 326 329 326 327 326 326 327
316 317 317 315 315 316 316 316 317 319 317 318 318 316 311 311 312 311 318 319 325 324 323 324 325 325 325 325 326 324 325 324 325
316 313 317 315 315 314 315 316 317 318 314 315 315 313 310 311 312 312 314 317 318 320 322 321 322 323 323 323 323 323 323 323 322
313 313 314 317 317 317 316 315 315 313 310 310 311 310 312 312 312 312 311 315 317 316 317 319 320 321 322 321 321 321 322 322 321
313 312 316 315 313 313 313 312 310 310 313 312 310 312 311 311 312 312 309 314 317 317 316 315 317 319 320 321 321 319 320 320 320
315 313 313 315 310 313 313 313 313 310 311 312 311 310 310 311 311 309 309 313 316 318 318 318 317 317 319 320 319 321 322 321 320
315 313 314 314 314 313 314 313 312 311 311 310 310 310 311 311 311 311 309 312 315 317 318 319 320 319 319 320 321 321 321 320 321
316 315 313 313 314 313 313 313 312 311 311 311 310 310 311 311 312 312 309 312 315 316 318 319 320 321 321 321 321 322 323 323 323
315 314 314 313 313 313 312 311 311 311 311 310 311 311 312 312 312 312 313 311 313 315 317 318 320 321 322 322 322 322 323 323 323
314 314 313 314 314 312 312 312 312 312 312 311 312 312 312 312 312 313 313 313 311 312 314 316 318 319 320 321 322 323 323 323 324
315 314 313 314 314 313 312 312 312 312 312 312 313 313 313 312 312 313 313 313 312 311 311 313 315 317 318 320 321 321 322 323 323
316 314 314 314 313 313 313 311 312 311 312 312 312 313 313 313 310 311 312 313 313 314 309 310 312 315 316 318 319 320 320 321 322
316 315 314 314 313 313 312 311 313 311 311 310 311 313 312 313 312 312 311 312 313 314 314 314 313 309 313 315 316 318 319 319 320
315 315 314 314 313 313 313 312 311 312 313 312 314 312 310 310 311 313 312 312 313 313 314 314 313 313 310 310 312 316 318 319 319
314 314 314 314 313 313 313 312 312 312 312 311 312 311 309 310 312 313 310 311 312 313 313 313 313 313 313 313 311 311 314 317 318
315 315 315 315 314 314 314 313 312 311 313 311 311 311 310 310 312 311 310 309 311 313 314 313 312 312 313 312 313 310 313 315 317
316 315 315 315 315 313 314 313 312 311 311 312 309 310 310 309 309 312 311 310 311 313 313 313 313 313 314 311 310 310 313 314 315
316 315 315 314 314 314 313 312 311 312 312 312 310 309 309 308 307 306 310 311 313 313 313 313 313 314 313 313 313 311 312 313 314
Wind_Speed
10 11 11 11 11 11 11 11 11 11 12 12 12 12 11 6 8 9 9 12 13 13 13 14 13 14 15 13 13 12 13 14 15
9 8 9 9 9 9 9 10 10 10 11 12 12 11 9 6 7 8 8 11 12 13 11 13 13 12 12 11 13 13 11 12 12
7 7 7 7 8 7 7 7 7 8 9 9 10 9 8 4 6 7 7 11 11 10 11 11 11 12 9 12 10 12 12 11 11
4 6 7 6 6 6 5 5 6 7 7 7 6 5 5 5 4 5 5 10 9 9 9 10 9 9 9 9 9 10 11 10 10
3 1 2 5 4 3 3 3 3 5 5 4 5 4 4 4 2 3 6 7 6 6 6 6 7 8 8 8 9 9 9 9 9
3 4 1 2 2 3 3 4 4 2 1 1 3 6 2 3 2 1 4 5 5 4 5 5 4 5 6 5 7 8 8 9 8
3 1 2 1 2 1 1 1 2 6 2 1 6 2 2 2 2 1 2 5 6 3 2 2 3 4 4 6 5 4 6 6 7
2 1 2 1 2 2 2 2 1 4 3 2 2 3 3 3 2 1 4 6 6 7 5 4 4 4 4 4 5 7 7 5 5
2 2 1 2 1 2 2 2 3 3 3 4 4 4 3 3 3 2 5 7 8 7 7 7 6 6 5 6 6 6 6 7 8
2 2 2 2 2 2 2 2 3 4 4 4 5 5 4 4 3 4 4 8 9 8 8 9 8 8 7 7 7 8 9 10 10
3 3 2 3 2 2 3 3 4 4 5 5 5 6 5 6 6 5 4 7 9 8 8 9 9 9 9 9 9 9 10 11 12
5 4 3 3 2 4 4 4 4 4 4 6 5 5 6 5 6 5 4 3 8 8 8 8 9 9 10 11 11 11 11 12 13
6 5 4 3 3 3 4 3 4 4 4 5 5 5 5 6 4 3 3 2 3 6 7 8 9 9 10 11 11 12 13 14 14
7 5 5 5 4 4 4 4 4 5 5 5 5 4 2 0 3 4 1 1 2 1 4 5 7 8 9 10 11 12 13 14 14
7 6 6 5 4 5 4 5 3 5 5 6 4 1 1 2 3 1 1 3 2 1 3 3 2 5 7 9 10 11 13 14 15
9 7 7 6 6 6 5 4 5 4 3 5 2 2 4 4 4 1 3 4 2 2 4 3 3 3 4 5 7 11 12 13 15
10 9 8 8 6 7 6 6 3 3 2 3 2 1 4 4 0 1 3 6 3 3 6 5 5 5 4 4 9 9 10 11 13
12 12 10 9 7 6 7 6 6 4 2 4 3 1 1 2 3 3 4 5 4 5 5 5 5 5 4 4 3 4 10 11 13
13 13 12 10 7 8 7 7 6 6 5 2 3 3 4 2 2 3 4 5 7 6 4 4 4 4 2 2 3 7 11 12 14
13 13 12 11 9 9 9 8 9 7 5 5 3 5 4 5 4 4 3 4 4 4 4 3 3 2 3 4 4 11 13 13 14
Wind_Direction
65 60 64 57 53 59 60 60 58 55 57 61 56 49 40 41 59 52 51 52 46 47 45 58 52 43 54 49 51 41 46 41 42
69 61 56 57 57 56 53 55 54 53 51 55 52 46 33 36 53 54 42 54 43 45 57 38 47 48 37 55 47 54 44 39 40
62 56 58 52 54 53 54 54 47 45 40 39 49 40 5 56 57 49 49 23 54 47 28 50 40 47 31 48 47 42 37 35 31
73 55 49 58 57 61 57 52 41 39 34 34 35 45 9 3 42 34 38 21 32 50 42 25 30 48 35 30 39 38 40 31 25
85 175 51 72 73 60 48 34 23 42 23 23 28 13 263 35 2 52 48 354 16 25 41 29 21 18 32 20 20 19 32 22 19
194 69 301 339 29 26 20 17 14 5 140 34 339 276 24 304 352 351 50 320 332 10 22 7 358 4 4 14 14 7 2 8 11
323 300 253 300 320 284 326 332 267 242 335 149 209 328 321 282 297 284 316 288 289 299 314 320 328 337 347 344 341 345 348 351 351
218 234 196 232 184 240 235 230 334 345 344 338 325 305 290 280 267 205 266 283 285 285 278 283 288 296 305 306 316 328 329 317 313
234 257 279 260 312 315 309 319 329 300 287 290 302 286 288 287 286 257 234 264 267 270 279 273 271 274 281 283 287 277 285 295 305
222 235 249 260 273 268 287 296 296 292 297 289 289 290 292 288 282 281 208 258 262 266 273 273 275 271 273 276 276 281 282 280 276
220 232 244 246 246 272 288 305 305 298 295 301 288 291 283 274 271 270 266 241 262 266 269 275 275 279 279 276 278 280 282 282 284
226 240 235 246 246 264 265 275 283 278 288 285 301 294 292 287 280 278 281 261 224 252 263 272 274 278 280 284 281 278 275 278 281
229 238 239 237 247 263 273 287 290 283 296 308 316 305 304 296 281 319 292 276 290 199 241 264 275 278 280 283 287 288 287 284 283
228 233 237 230 241 245 260 269 278 304 309 317 318 316 323 289 161 44 54 226 253 290 156 255 268 273 283 287 289 291 290 291 293
227 233 237 232 238 244 238 260 270 293 309 305 293 130 135 148 199 273 161 131 145 126 328 279 201 252 293 296 296 298 297 298 297
221 230 230 221 235 240 245 260 269 272 277 276 161 149 155 106 119 341 181 141 117 286 350 290 288 290 265 284 312 305 308 305 299
219 223 227 225 225 226 228 224 246 256 263 305 252 211 163 202 33 205 189 189 303 276 334 302 297 300 310 349 308 318 315 310 308
217 222 225 224 224 231 222 220 225 254 242 262 314 249 309 323 164 200 205 228 281 305 316 311 301 311 318 302 331 342 314 311 313
217 221 221 226 217 224 222 214 221 223 236 238 251 263 315 291 266 178 206 237 276 294 292 299 306 311 323 316 244 316 310 309 309
214 216 217 219 220 223 218 207 208 215 232 224 174 210 220 240 249 278 229 260 238 261 292 286 293 313 307 327 353 328 315 312 311